KF6ILA Weather Reports


time (UTC)temp
C
wind
direction
speed
KPH
gust
KPH
rain 1hr
cm
rain 24hr
cm
rain mn
cm
humidity
%
barometer
mb
20260503002450 21 267 16.1 24.1 0.00 0.00 0.00 49 1012.2
20260503001456 22 249 16.1 24.1 0.00 0.00 0.00 52 1012.2
20260503000502 22 279 14.5 22.5 0.00 0.00 0.00 50 1012.4
20260502233023 23 251 12.9 19.3 0.00 0.00 0.00 44 1012.4
20260502225544 22 287 11.3 22.5 0.00 0.00 0.00 43 1011.8
20260502224549 23 262 12.9 25.7 0.00 0.00 0.00
20260502224053 23 266 16.1 25.7 0.00 0.00 0.00 45 1012.1
20260502223556 23 270 14.5 24.1 0.00 0.00 0.00 41
20260502220614 24 289 12.9 0.0 12.70 0.00 0.00 44 101.2
20260502215620 26 179 12.9 24.1 0.00 0.00 0.00 21 1013.1
20260502215123 26 144 11.3 24.1 0.00 0.00 0.00 22 1013.1
20260502214626 26 102 12.9 24.1 0.00 0.00 0.00 23 1013.2
20260502214129 26 134 11.3 25.7 0.00 0.00 0.00 23 1013.2
20260502213632 26 161 12.9 25.7 0.00 0.00 0.00 23 1013.2
20260502212638 27 164 19.3 30.6 0.00 0.00 0.00 21 1013.2
20260502212141 27 141 9.7 30.6 0.00 0.00 0.00 23 1013.2
20260502211644 26 136 14.5 25.7 0.00 0.00 0.00 23 1013.2
20260502211147 26 154 12.9 29.0 0.00 0.00 0.00 24 1013.1
20260502210153 26 121 9.7 33.8 0.00 0.00 0.00 23 1013.0
20260502205159 26 130 12.9 32.2 0.00 0.00 0.00 24 1013.5
20260502204702 26 169 14.5 32.2 0.00 0.00 0.00 23 1013.6
20260502204205 25 163 12.9 30.6 0.00 0.00 0.00 23 1013.7
20260502203708 26 166 20.9 32.2 0.00 0.00 0.00 22 1013.6
20260502203211 26 141 17.7 37.0 0.00 0.00 0.00 24 1013.7
20260502202714 26 116 19.3 37.0 0.00 0.00 0.00 24 1013.5
20260502202217 26 123 24.1 35.4 0.00 0.00 0.00 23 1013.6
20260502201720 26 117 17.7 33.8 0.00 0.00 0.00 23 1013.8
20260502201223 26 124 16.1 33.8 0.00 0.00 0.00 27 1013.8
20260502200726 26 131 17.7 30.6 0.00 0.00 0.00 25 1013.9
20260502200229 26 140 19.3 30.6 0.00 0.00 0.00 23 1013.9
20260502195732 26 130 12.9 30.6 0.00 0.00 0.00 24 1014.1
20260502195235 26 130 19.3 30.6 0.00 0.00 0.00 24 1014.0
20260502194738 26 168 12.9 29.0 0.00 0.00 0.00 23 1014.1
20260502194241 27 119 17.7 29.0 0.00 0.00 0.00 23 1014.3
20260502193744 27 121 20.9 32.2 0.00 0.00 0.00 24 1014.4
20260502193247 26 113 20.9 32.2 0.00 0.00 0.00 24 1014.5
20260502192750 26 153 11.3 29.0 0.00 0.00 0.00 25 1014.4
20260502191756 26 110 16.1 30.6 0.00 0.00 0.00 24 1014.8
20260502191259 26 123 17.7 30.6 0.00 0.00 0.00 25 1014.7
20260502190802 26 157 11.3 32.2 0.00 0.00 0.00 25 1014.8
20260502190305 26 108 19.3 32.2 0.00 0.00 0.00 24 1014.7
20260502185808 26 131 12.9 30.6 0.00 0.00 0.00 25 1014.8
20260502185311 26 136 12.9 32.2 0.00 0.00 0.00 23 1014.8
20260502184814 26 114 16.1 37.0 0.00 0.00 0.00 23 1014.9
20260502184317 26 120 24.1 37.0 0.00 0.00 0.00 23 1014.9
20260502183820 26 141 11.3 32.2 0.00 0.00 0.00 24 1014.8
20260502183323 26 124 22.5 35.4 0.00 0.00 0.00 24 1015.0
20260502182826 26 119 19.3 35.4 0.00 0.00 0.00 23 1015.0
20260502182329 26 125 22.5 35.4 0.00 0.00 0.00 23 1014.9
20260502181832 26 126 16.1 33.8 0.00 0.00 0.00 24 1015.0
20260502181335 25 131 12.9 33.8 0.00 0.00 0.00 25 1015.0
20260502180838 25 117 12.9 35.4 0.00 0.00 0.00 26 1015.1
20260502180341 25 135 16.1 35.4 0.00 0.00 0.00 25 1015.1
20260502170417 23 93 17.7 33.8 0.00 0.00 0.00 24 1015.3
20260502163932 23 104 14.5 27.4 0.00 0.00 0.00 27 1015.3
20260502163435 23 96 14.5 27.4 0.00 0.00 0.00 27 1015.5
20260502162938 23 90 8.0 20.9 0.00 0.00 0.00 28 1014.6
20260502162441 22 85 8.0 25.7 0.00 0.00 0.00 28 1014.5
20260502161944 22 91 16.1 29.0 0.00 0.00 0.00 26 1014.5
20260502161447 22 93 16.1 29.0 0.00 0.00 0.00 27 1014.5
20260502160950 22 93 17.7 30.6 0.00 0.00 0.00 26 1014.6
20260502160453 22 89 19.3 30.6 0.00 0.00 0.00 26 1014.5
20260502152020 21 89 14.5 22.5 0.00 0.00 0.00 30 1014.6
20260502151523 21 94 12.9 22.5 0.00 0.00 0.00 31 1014.6
20260502151026 20 85 9.7 20.9 0.00 0.00 0.00 33 1014.5
20260502150529 20 83 12.9 22.5 0.00 0.00 0.00 32 1014.5
20260502121214 14 0 0.0 0.0 0.00 0.00 0.00 45 1013.3
20260502120717 14 0 0.0 0.0 0.00 0.00 0.00 45 1013.4
20260502114232 13 0 0.0 0.0 0.00 0.00 0.00 47 1013.3
20260502111747 14 0 0.0 0.0 0.00 0.00 0.00 46 1013.1
20260502111250 14 0 0.0 0.0 0.00 0.00 0.00 46 1013.1
20260502110753 15 0 0.0 1.6 0.00 0.00 0.00 45 1013.1
20260502110256 15 0 0.0 1.6 0.00 0.00 0.00 44 1013.1
20260502104805 15 0 0.0 3.2 0.00 0.00 0.00 45 1013.2
20260502104308 15 191 1.6 4.8 0.00 0.00 0.00 44 1013.2
20260502103811 15 191 1.6 4.8 0.00 0.00 0.00 43 1013.2
20260502103314 15 191 1.6 4.8 0.00 0.00 0.00 44 1013.1
20260502102320 15 0 0.0 3.2 0.00 0.00 0.00 45 1013.1
20260502090905 15 0 0.0 4.8 0.00 0.00 0.00 42 1013.3
20260502071514 16 280 6.4 9.7 0.00 0.00 0.00 38 1013.9
20260502071017 16 281 8.0 11.3 0.00 0.00 0.00 39 1014.0
20260502070520 16 280 6.4 11.3 0.00 0.00 0.00 39 1014.0
20260502070023 16 281 8.0 11.3 0.00 0.00 0.00 39 1014.0
20260502065526 16 282 8.0 11.3 0.00 0.00 0.00 39 1014.0
20260502065123 16 277 8.0 9.7 0.00 0.00 0.00 39 1014.0
20260502065029 16 277 8.0 9.7 0.00 0.00 0.00 39 1014.0
20260502064532 16 276 6.4 9.7 0.00 0.00 0.00 39 1013.9
20260502064035 16 277 6.4 11.3 0.00 0.00 0.00 40 1014.1
20260502063041 16 276 8.0 12.9 0.00 0.00 0.00 41 1014.1
20260502062544 16 277 9.7 12.9 0.00 0.00 0.00 42 1014.1
20260502061550 16 277 8.0 9.7 0.00 0.00 0.00 43 1014.0
20260502061124 16 280 6.4 9.7 0.00 0.00 0.00 44 1014.0
20260502061053 16 280 6.4 9.7 0.00 0.00 0.00 44 1014.0
20260502060059 16 282 8.0 11.3 0.00 0.00 0.00 45 1013.9
20260502055602 16 281 8.0 11.3 0.00 0.00 0.00 46 1013.9
20260502055105 16 279 8.0 11.3 0.00 0.00 0.00 47 1013.8
20260502054112 16 287 8.0 12.9 0.00 0.00 0.00 48
20260502052620 16 288 9.7 14.5 0.00 0.00 0.00 51 1013.8
20260502050632 16 277 9.7 12.9 0.00 0.00 0.00 53 1013.9
20260502045141 15 281 9.7 12.9 0.00 0.00 0.00 57 1013.8
20260502042656 15 275 8.0 14.5 0.00 0.00 0.00 64 1013.8
20260502041205 15 278 9.7 16.1 0.00 0.00 0.00 69 1013.6
20260502040211 15 280 9.7 16.1 0.00 0.00 0.00 72 1013.6
20260502035714 15 289 9.7 16.1 0.00 0.00 0.00 73 1013.5
20260502035217 15 282 11.3 14.5 0.00 0.00 0.00 73 1013.5
20260502034720 15 282 9.7 14.5 0.00 0.00 0.00 74 1013.5
20260502033726 15 275 11.3 17.7 0.00 0.00 0.00 75 1013.3
20260502032815 15 269 9.7 16.1 0.00 0.00 0.00 76 1013.3
20260502032732 15 269 9.7 16.1 0.00 0.00 0.00 76 1013.3
20260502032235 15 284 8.0 16.1 0.00 0.00 0.00 77 1013.3
20260502031241 15 272 6.4 17.7 0.00 0.00 0.00 78 1013.2
20260502030744 15 251 9.7 17.7 0.00 0.00 0.00 78 1013.2
20260502030247 15 253 8.0 17.7 0.00 0.00 0.00 76 1013.1
20260502025750 15 268 11.3 22.5 0.00 0.00 0.00 75 1013.0
20260502024756 15 278 11.3 19.3 0.00 0.00 0.00 78 1012.8
20260502023402 16 264 11.3 20.9 0.00 0.00 0.00 75 1012.7
20260502023305 16 264 11.3 20.9 0.00 0.00 0.00 75 1012.7
20260502022808 16 274 8.0 14.5 0.00 0.00 0.00 75 1012.7
20260502022311 16 253 9.7 20.9 0.00 0.00 0.00 75 1012.7
20260502020820 17 241 19.3 25.7 0.00 0.00 0.00 71 1012.7
20260502020323 17 247 11.3 22.5 0.00 0.00 0.00 67 1012.7
20260502014832 18 258 16.1 22.5 0.00 0.00 0.00 66 1012.6
20260502014335 18 250 16.1 22.5 0.00 0.00 0.00 64 1012.6
20260502013838 18 242 16.1 22.5 0.00 0.00 0.00 63 1012.6
20260502011353 19 270 17.7 29.0 0.00 0.00 0.00 60 1012.7
20260502010856 20 271 19.3 29.0 0.00 0.00 0.00 61 1012.7
20260502005902 20 270 11.3 24.1 0.00 0.00 0.00 58 1012.8
20260502005405 20 263 14.5 29.0 0.00 0.00 0.00 57 1012.6
20260502003417 21 251 17.7 25.7 0.00 0.00 0.00 55 1012.8